Вернуться в каталог

STARLINK-34141

АктивенСвязьVLEO
NORAD 64020·PAYLOAD·🇺🇸 United States

Запущен May 14, 2025 с Cape Canaveral Space Force Station

Loading…

Ближайшие Пролёты (ближайшие 24 часа)

TLE

СвежийSource: CelesTrak SupGP

Эпоха: Sep 15, 2026, 02:34 UTC

1 64020C 25101AC  26258.10743056  .00013987  00000+0  50653-3 0  2587
2 64020  43.0044   8.3055 0001596 264.3748  81.4772 15.27576771    13

Отслеживайте STARLINK-34141 в реальном времени с AllMySat

Download on the App Store